User: anonymous   Login
Location: Miami, Florida
(25.6830°N, 80.1700°W)
Time: 17:11:08
(UTC-04:00)
Language:

N. Korean satellite - Orbit

View from above orbital plane
View from above orbital plane
View from above satellite
View from above satellite

Ground track
Ground track

The orbit data is extracted from the following two-line orbital elements,

1 39026U 12072A   18172.94014919 +.00001136 +00000-0 +45075-4 0  9994
2 39026 097.2100 183.1436 0037733 307.9618 051.8214 15.26772259306325
Epoch (UTC): 21 June 2018 22:33:48
Eccentricity: 0.0037733
inclination: 97.2100°
perigee height: 459 km
apogee height: 511 km
right ascension of ascending node: 183.1436°
argument of perigee: 307.9618°
revolutions per day: 15.26772259
mean anomaly at epoch: 51.8214°
orbit number at epoch: 30632

The dashed part of the orbit path shows where the satellite is in the earth's shadow,  

DLR